www.pogodaiklimat.ru

Погода и климат >> Архив погоды >> Сенегал >> Каолак


ПОГОДА в Каолаке

  • Прогноз погоды в Каолаке
  • Монитор погоды в Каолаке

АРХИВ ПОГОДЫ в Каолаке

Время (UTC), дата Ветер
(напр.,м/с)
 
Видим.   Явления Облачность Т
(С)
Тd
(С)
f
(%)
Тe
(С)
Тes
(С)
Комфортность P
(гПа)
Po
(гПа)
Тmin
(С)
Tmax
(С)
R
(мм)
R24
(мм)
S
(см)
03 12.02 СВ 4 8000 м 3/0
[Ci sp]
+26.0 +5.8 27 +25 +25 комфорт 1012.8 1012.0
06 12.02 СВ 3 10 км 3/0
[Ci sp]
+24.2 +6.5 32 +24 +24 комфорт 1012.1 1011.3 +23.5
09 12.02 В 3 10 км ясно +25.2 +3.7 25 +24 +27 комфорт 1013.9 1013.1
12 12.02 В 5 10 км ясно +34.3 +1.0 12 +31 +39 жарко 1013.4 1012.6
15 12.02 СВ 3 10 км ясно +39.0 +13.4 22 +39 +50 очень
жарко
1010.5 1009.7
18 12.02 СВ 4 10 км ясно +37.5 +15.2 27 +39 +40 очень
душно
1009.8 1009.0 +39.6
21 12.02 СВ 2 10 км ясно +31.5 +5.4 19 +29 +29 жарко 1011.7 1010.9
00 13.02 СВ 4 10 км ясно +28.8 +10.9 33 +29 +29 жарко 1012.8 1012.0
03 13.02 СВ 2 10 км ясно +26.5 +11.8 40 +28 +28 жарко 1012.4 1011.6
06 13.02 СВ 2 10 км ясно +23.3 +10.1 43 +25 +25 комфорт 1012.3 1011.5 +23.2
09 13.02 СВ 2 10 км 5/0
[Ac trans]
+24.8 +10.8 41 +26 +28 жарко 1014.1 1013.3
12 13.02 В 5 8000 м ясно +33.9 +17.4 38 +38 +46 очень
душно
1013.4 1012.6
15 13.02 В 5 10 км ясно +38.0 +21.6 39 +46 +52 опасность
перегрева
1010.7 1009.9
18 13.02 СВ 3 10 км 3/0
[Ci sp]
+37.5 +22.5 42 +46 +47 опасность
перегрева
1010.0 1009.2 +38.6
21 13.02 штиль 0 10 км 6/0
[Ac cast Ci sp]
+31.2 +16.5 41 +34 +34 душно 1012.1 1011.3
00 14.02 СВ 3 10 км 8/0
[Ac cast Ci sp]
+30.0 +1.9 17 +28 +28 жарко 1013.1 1012.3
03 14.02 СВ 3 10 км 8/0
[Ac cast]
+28.0 +1.2 18 +26 +26 жарко 1012.4 1011.6
06 14.02 СВ 4 10 км 8/0
[Ac As]
+27.8 +1.0 18 +26 +26 жарко 1012.8 1012.0 +27.5
09 14.02 СВ 2 10 км 8/0
[Ac cast Ci sp]
+27.0 -1.2 16 +25 +27 комфорт 1015.1 1014.3
12 14.02 СВ 2 10 км 6/0
[Ac cast Ci sp]
+33.2 -5.7 8 +29 +41 жарко 1015.3 1014.5
15 14.02 штиль 0 10 км 9/0
[Ci sp]
+36.6 -1.3 9 +33 +48 жарко 1012.6 1011.8
18 14.02 В 1 10 км 8/0
[Ci sp]
+35.5 +3.3 13 +32 +33 жарко 1012.0 1011.2 +37.7
21 14.02 штиль 0 10 км 8/0
[Ci sp]
+31.0 +4.1 18 +29 +29 жарко 1013.9 1013.1
00 15.02 СЗ 3 10 км 8/0
[Ci sp]
+29.4 +2.8 18 +27 +27 жарко 1015.6 1014.8
03 15.02 СЗ 3 10 км 8/0
[Ci sp]
+28.0 +3.1 20 +26 +26 жарко 1014.6 1013.8
06 15.02 С 3 10 км 8/0
[Ci sp]
+25.3 +1.8 22 +24 +24 комфорт 1014.1 1013.3 +25.2
09 15.02 С 3 10 км 5/0
[Ac cast Ci sp]
+26.3 +2.1 21 +25 +27 комфорт 1015.2 1014.4
12 15.02 штиль 0 10 км 6/0
[Ci sp]
+35.1 -5.0 7 +31 +50 жарко 1015.4 1014.6
15 15.02 штиль 0 10 км 6/0
[Ci sp]
+39.4 -0.3 8 +36 +52 опасность
солнечного
удара
1012.1 1011.3
18 15.02 С 2 10 км 6/0
[Ci sp]
+38.8 +2.8 11 +36 +36 очень
жарко
1011.3 1010.5 +40.6
21 15.02 СЗ 2 10 км 8/0
[Ci sp]
+33.0 +1.9 14 +30 +30 жарко 1012.7 1011.9
00 16.02 СЗ 4 10 км 8/0
[Ac cast Ci sp]
+28.8 +1.9 18 +27 +27 жарко 1014.1 1013.3
03 16.02 СЗ 4 10 км 8/0
[Ac As]
+26.0 +2.5 22 +25 +25 комфорт 1013.0 1012.2
06 16.02 СЗ 4 10 км 8/0
[Ac cast Ci sp]
+24.5 +4.7 28 +24 +24 комфорт 1013.1 1012.3 +24.5
09 16.02 СЗ 4 8000 м 8/0
[Ac cast Ci sp]
+23.7 +5.7 31 +24 +25 комфорт 1014.8 1014.0
12 16.02 С 5 8000 м 8/0
[Ac cast Ci sp]
+31.6 +3.3 17 +29 +35 жарко 1014.6 1013.8
15 16.02 С 5 8000 м 9/0
[Ac cast]
+33.8 +2.3 14 +31 +33 жарко 1012.2 1011.4
18 16.02 С 4 8000 м 8/0
[Ac cast Ci sp]
+33.5 +4.2 16 +31 +31 жарко 1011.5 1010.7 +34.8
21 16.02 СЗ 4 10 км 8/0
[Ac cast Ci sp]
+29.2 +10.8 32 +30 +30 жарко 1012.6 1011.8
00 17.02 СЗ 4 10 км 8/0
[Ci sp]
+24.0 +13.0 50 +26 +26 жарко 1013.9 1013.1
03 17.02 СЗ 3 10 км 8/0
[Ci sp]
+22.0 +12.4 54 +24 +24 комфорт 1013.2 1012.4
06 17.02 С 4 10 км 5/0
[Ci sp]
+20.5 +11.8 57 +23 +23 комфорт 1012.4 1011.6 +20.5
09 17.02 С 3 10 км 6/0
[Ac cast Ci sp]
+21.8 +12.5 55 +24 +26 комфорт 1014.4 1013.6
12 17.02 СВ 5 10 км 6/0
[Ci fib]
+30.2 +8.8 26 +30 +37 жарко 1014.7 1013.9
15 17.02 СВ 3 10 км 4/0
[Ci fib]
+36.2 +4.2 14 +33 +44 жарко 1011.4 1010.6
18 17.02 СЗ 2 10 км 4/0
[Ci fib]
+36.4 +5.7 15 +34 +35 очень
жарко
1011.0 1010.2 +37.5
21 17.02 СЗ 1 10 км 5/0
[Ac cast Ci sp]
+30.0 +3.7 19 +28 +28 жарко 1012.4 1011.6
03 18.02 СЗ 2 10 км 4/0
[Ac cast Ci sp]
+21.5 +9.5 46 +23 +23 комфорт 1013.5 1012.7
06 18.02 СЗ 2 10 км 4/0
[Ac cast Ci sp]
+19.6 +11.3 59 +21 +21 комфорт 1012.8 1012.0 +19.6
09 18.02 СЗ 2 10 км 3/0
[Ci sp]
+19.8 +13.2 66 +22 +26 комфорт 1014.0 1013.2
12 18.02 штиль 0 10 км 3/0
[Ci sp]
+28.8 +9.4 30 +29 +50 жарко 1014.2 1013.4
15 18.02 СЗ 2 10 км 3/0
[Ci sp]
+35.0 +7.4 18 +33 +46 жарко 1011.4 1010.6
18 18.02 СЗ 3 10 км 4/0
[Ci sp]
+35.0 +4.7 15 +32 +33 жарко 1009.9 1009.1 +36.5
21 18.02 СЗ 2 10 км ясно +29.4 +6.2 23 +28 +28 жарко 1011.6 1010.8
00 19.02 СЗ 2 10 км 9/9
[Frnb]
+26.0 +11.3 40 +27 +27 жарко 1012.3 1011.5

 

Местоположение метеостанции Каолак (Сенегал): широта 14.13 долгота -16.06 высота над уровнем моря 7 м.

В архиве по умолчанию представлена погода в Каолаке за последнюю неделю. Архивные данные за месяц целиком и за предыдущие месяцы, начиная с января 2011 года, Вы можете получить, выбрав интересующий диапазон дат из раскрывающегося списка и нажав кнопку "Ввод!".


*Определитесь, кто Вы:
робот инопланетянин человек

Внимание! Время в таблицах - всемирное. Для получения местного времени необходимо прибавить поправку, которая равна 0 ч.

Смотрите также архив погоды в соседних городах и на ближайших метеорологических станциях:

Погода в Диурбеле (Сенегал) (61 км)
Погода в Сапу (Гамбия) (64 км)
Погода в Кереване (Гамбия) (71 км)
Погода в Банжуле Half-Die (Гамбия) (87 км)
Погода в Женое (Гамбия) (90 км)
Погода в Кауере (Гамбия) (93 км)
Погода в Сибаноре (Гамбия) (102 км)
Погода в Банжуле (Гамбия) (109 км)
Погода в Джорджтауне (Гамбия) (154 км)
Погода в Дакаре (Сенегал) (169 км)

Пояснения к столбцам:

Ветер - указаны скорость ветра в м/с - средняя за 10 мин, порывы в срок и между сроками (в фигурных скобках) и направление, откуда дует ветер: С - северный, СВ - северо-восточный, В - восточный, ЮВ - юго-восточный, Ю - южный, ЮЗ - юго-западный, З - западный, СЗ - северо-западный.
Видимость - горизонтальная дальность видимости в метрах или километрах. При видимости от 1 до 10 км при отсутствии осадков обычно наблюдается дымка, при ухудшении видимости до 1 км и менее - туман. В сухую погоду видимость может ухудшаться дымом, пылью или мглою.
Явления - указаны атмосферные явления, наблюдавшиеся в срок или в последний час перед сроком; фигурными скобками обозначены явления, наблюдавшиеся между сроками (за 1-3 часа до срока); квадратными скобками обозначены град или гололедные отложения с указанием их диаметра в мм.
Облачность - указаны через наклонную черту общая и нижняя облачность в баллах и высота нижней границы облаков в метрах; квадратными скобками обозначены формы облаков: Ci - перистые, Cs - перисто-слоистые, Cc - перисто-кучевые, Ac - высококучевые, As - высокослоистые, Sc - слоисто-кучевые, Ns - слоисто-дождевые, Cu - кучевые, Cb - кучево-дождевые. Подробнее классификацию облаков см. в Атласе облаков (PDF).
T - Температура воздуха - температура, измеренная на высоте 2 м над землей.
Td - Температура точки росы - температура, при понижении до которой содержащийся в воздухе водяной пар достигнет насыщения.
f - Относительная влажность воздуха - влажноcть воздуха, измеренная на высоте 2 м над землей.
Te - Эффективная температура - температура, которую ощущает одетый по сезону человек в тени. Характеристика душности погоды. При расчете учитывается влияние влажности воздуха и скорости ветра на теплоощущения человека.
Tes - Эффективная температура на солнце - температура, которую ощущает человек, с поправкой на солнечный нагрев. Характеристика знойности погоды. Зависит от высоты солнца над горизонтом, облачности и скорости ветра. Ночью, в пасмурную погоду, а также при ветре 12 м/с и более поправка равна нулю.
P - Атмосферное давление - приведенное к уровню моря атмосферное давление.
Po - Атмосферное давление - измеренное на уровне метеостанции атмосферное давление.
Tmin - Минимальная температура - минимум температуры воздуха на высоте 2 м над землей.
Tmax - Максимальная температура - максимум температуры воздуха на высоте 2 м над землей.
R - Количество осадков - Количество выпавших осадков за период времени, мм. При наведении курсора мыши на число - период времени, за который выпало указанное количество осадков.
R24 - Количество осадков - Количество выпавших осадков за 24 часа, мм.
S - Снежный покров - Высота снежного покрова, см. При наведении курсора мыши на число - состояние снежного покрова и степень покрытия местности в баллах.